Location: Newark
(35.2672°N, 80.7344°W)
Time: 01:09:49
(UTC+00:00)

Transit 2A Rocket - Pass Details

Date: 28 January 2020
Orbit: 591 x 912 km, 66.7° (Epoch: 27 February)

Event Time Altitude Azimuth Distance (km) Brightness Sun altitude
Rises 08:38:12 0° 177° (S) 2,866 - -46.3°
Reaches altitude 10° 08:40:47 10° 164° (SSE) 1,938 - -45.8°
Maximum altitude 08:44:18 24° 109° (ESE) 1,226 - -45.1°
Drops below altitude 10° 08:47:46 10° 55° (NE) 1,922 - -44.4°
Sets 08:50:19 0° 41° (NE) 2,836 - -43.9°
Exits shadow 08:50:30 -1° 41° (NE) 2,910 8.5 -43.9°
